Погода в Дигосе

Филиппины     6°45′21″N   125°21′20″E
темп.,
°C
ветер,
м/с
пор.,
м/с
влажн.,
%
обл.,
%
осадки,
мм/ч
давл.,
гПа
погр.,
м
24 октября, вс
вс2423:00+23зсз2291100 0.4 101236
02:00+22сз2292100 0.5 101052
05:00+23зсз229295 0.0 101030
08:00+27з1277100 0.0 1012413
11:00+30зюз1161100 0.3 10101133
14:00+29ююв127159 2.8 1008628
17:00+25вюв1291100 4.6 100949
20:00+23сз1194100 7.8 101221
25 октября, пн
пн2523:00+23зсз2292100 1.6 101136
02:00+23зсз2392100 1.7 101054
05:00+23зсз2291100 0.0 101040
08:00+25зюз1184100 0.0 1012154
11:00+27зюз1274100 0.1 1010458
14:00+29зсз0167100 1.1 1008850
17:00+24в1189100 0.9 100923
20:00+23ссз119276 0.9 101113
26 октября, вт
вт2623:00+23сз11913 0.0 101115
02:00+22сз118991 0.0 100918
05:00+22сз118769 0.0 101016
08:00+27юз117233 0.0 1011403
11:00+31юв115912 0.0 10091083
14:00+30в3262100 0.8 10071118
17:00+26в238397 1.9 1008121
20:00+23ссв1196100 5.8 101132
27 октября, ср
ср2723:00+23с1195100 3.0 101121
02:00+23сз1191100 3.1 100914
05:00+23зсз1191100 0.1 101013
08:00+27ююв007645 0.1 1012416
11:00+30вюв326299 0.0 10101206
14:00+29в4465100 0.1 1008837
17:00+26в2384100 0.1 100896
20:00+24св1188100 0.1 101117
28 октября, чт
чт2823:00+24с1186100 0.0 101016
02:00+23с018696 0.0 100915
05:00+23ссз118956 0.0 101014
08:00+26юв127979 0.0 1012368
11:00+30вюв336218 0.0 1010998
14:00+30вюв445793 0.0 1008894
17:00+26в2281100 0.0 100937
20:00+24ссв1186100 0.0 101213